Emporia, KS

12:12 PM CDT on July 20, 2017 (GMT -0500)
Emporia Municipal

Weather History for KEMP - October, 2011

Change the Weather History Date:

Thursday, October 6, 2011

  Actual Average Record
Temperature  
Mean Temperature 72 °F 61 °F  
Max Temperature 84 °F 73 °F 89 °F (1997)
Min Temperature 61 °F 49 °F 36 °F (2000)
Degree Days  
Heating Degree Days 0 6  
Month to date heating degree days 33  
Since 1 July heating degree days 83  
Cooling Degree Days 8 2  
Month to date cooling degree days 12  
Year to date cooling degree days 1385  
Growing Degree Days 22 (Base 50)    
Moisture  
Dew Point 45 °F    
Average Humidity 40    
Maximum Humidity 56    
Minimum Humidity 20    
Precipitation  
Precipitation 0.00 in 0.08 in 0.86 in (2008)
Month to date precipitation 0.50  
Year to date precipitation 30.50  
Sea Level Pressure  
Sea Level Pressure 29.96 in    
Wind  
Wind Speed 17 mph (SSE)    
Max Wind Speed 26 mph    
Max Gust Speed 38 mph    
Visibility 10 miles    
Events      
T = Trace of Precipitation, MM = Missing Value Source: NWS Daily Summary

Daily Weather History Graph

Daily Weather History Graph

Search for Another Location

Airport or City:

Trip Planner

Search our weather history database for the weather conditions in past years. The results will help you decide how hot, cold, wet, or windy it might be!

Date:

Astronomy

Oct. 06, 2011 Rise Set
Actual Time 7:24 AM CDT 7:00 PM CDT
Civil Twilight 6:58 AM CDT 7:26 PM CDT
Nautical Twilight 6:27 AM CDT 7:57 PM CDT
Astronomical Twilight 5:57 AM CDT 8:27 PM CDT
Moon 4:10 PM CDT (10/6) 2:18 AM CDT (10/6)
Length of Visible Light 12h 28m
Length of Day
11h 35m
Waxing Gibbous, 75% of the Moon is Illuminated
Oct 6
Waxing Gibbous
Oct 11
Full
Oct 19
Last Quarter
Oct 26
New
Nov 2
First Quarter

Hourly Weather History & Observations

Time (CDT) Temp. Dew Point Humidity Pressure Visibility Wind Dir Wind Speed Gust Speed Precip Events Conditions
12:53 AM 64.0 °F 42.1 °F 45% 30.01 in 10.0 mi SSE 15.0 mph - N/A   Clear
1:53 AM 64.0 °F 43.0 °F 46% 30.00 in 10.0 mi SSE 13.8 mph - N/A   Mostly Cloudy
2:53 AM 64.0 °F 43.0 °F 46% 30.00 in 10.0 mi SSE 11.5 mph - N/A   Clear
3:53 AM 63.0 °F 44.1 °F 50% 29.99 in 10.0 mi SSE 9.2 mph - N/A   Scattered Clouds
4:53 AM 62.1 °F 44.1 °F 52% 29.99 in 10.0 mi SE 11.5 mph - N/A   Overcast
5:53 AM 61.0 °F 44.1 °F 54% 29.99 in 10.0 mi SSE 15.0 mph - N/A   Clear
7:53 AM 61.0 °F 45.0 °F 56% 30.00 in 10.0 mi SSE 13.8 mph - N/A   Clear
8:53 AM 64.0 °F 45.0 °F 50% 30.01 in 10.0 mi South 17.3 mph 26.5 mph N/A   Clear
10:53 AM 73.0 °F 48.9 °F 42% 30.01 in 10.0 mi SSE 16.1 mph 25.3 mph N/A   Clear
11:53 AM 75.9 °F 48.0 °F 37% 29.99 in 10.0 mi South 26.5 mph 36.8 mph N/A   Clear
12:53 PM 78.1 °F 46.9 °F 33% 29.97 in 10.0 mi South 24.2 mph 35.7 mph N/A   Clear
1:53 PM 81.0 °F 46.0 °F 29% 29.95 in 10.0 mi SSE 26.5 mph 35.7 mph N/A   Overcast
2:53 PM 82.9 °F 42.1 °F 24% 29.92 in 10.0 mi SSE 25.3 mph 33.4 mph N/A   Clear
3:53 PM 84.0 °F 39.0 °F 20% 29.90 in 10.0 mi South 24.2 mph 38.0 mph N/A   Clear
4:53 PM 82.9 °F 41.0 °F 23% 29.89 in 10.0 mi SSE 26.5 mph 35.7 mph N/A   Clear
5:53 PM 80.1 °F 43.0 °F 27% 29.89 in 10.0 mi SSE 25.3 mph 34.5 mph N/A   Clear
6:53 PM 77.0 °F 45.0 °F 32% 29.90 in 10.0 mi SSE 18.4 mph 25.3 mph N/A   Clear
7:53 PM 75.0 °F 46.9 °F 37% 29.91 in 10.0 mi SE 17.3 mph 24.2 mph N/A   Clear
8:53 PM 73.0 °F 48.0 °F 41% 29.93 in 10.0 mi SE 15.0 mph 24.2 mph N/A   Clear
9:53 PM 72.0 °F 48.0 °F 43% 29.94 in 10.0 mi SE 16.1 mph 25.3 mph N/A   Clear
10:53 PM 70.0 °F 48.0 °F 46% 29.94 in 10.0 mi SE 16.1 mph 24.2 mph N/A   Clear
11:53 PM 70.0 °F 48.0 °F 46% 29.93 in 10.0 mi SSE 16.1 mph - N/A   Clear